| time (UTC) | temp C | wind direction | speed KPH | gust KPH | rain 1hr cm | rain 24hr cm | rain mn cm | humidity % | barometer mb |
| 20260504081556 | 14 | 266 | 19.3 | 27.4 | 0.00 | 0.00 | 0.00 | 44 | 994.1 |
| 20260504050106 | 15 | 268 | 8.0 | 12.9 | 0.00 | 0.00 | 0.00 | 45 | 998.3 |
| 20260504044557 | 14 | 269 | 9.7 | 14.5 | 0.00 | 0.00 | 0.00 | 46 | 998.7 |
| 20260504043058 | 14 | 264 | 9.7 | 16.1 | 0.00 | 0.00 | 0.00 | 48 | 999.0 |
| 20260504041555 | 14 | 266 | 9.7 | 17.7 | 0.00 | 0.00 | 0.00 | 47 | 999.3 |
| 20260504040132 | 14 | 266 | 11.3 | 14.5 | 0.00 | 0.00 | 0.00 | 47 | 999.7 |
| 20260504034601 | 14 | 258 | 8.0 | 11.3 | 0.00 | 0.00 | 0.00 | 46 | 1000.1 |
| 20260504033052 | 14 | 264 | 6.4 | 12.9 | 0.00 | 0.00 | 0.00 | 46 | 1000.5 |
| 20260504031621 | 14 | 266 | 4.8 | 8.0 | 0.00 | 0.00 | 0.00 | 46 | 1000.8 |
| 20260504030053 | 14 | 270 | 3.2 | 6.4 | 0.00 | 0.00 | 0.00 | 48 | 1001.1 |
| 20260504024603 | 15 | 267 | 1.6 | 4.8 | 0.00 | 0.00 | 0.00 | 45 | 1001.5 |
| 20260504023056 | 15 | 266 | 3.2 | 4.8 | 0.00 | 0.00 | 0.00 | 44 | 1001.8 |
| 20260504021558 | 16 | 276 | 1.6 | 3.2 | 0.00 | 0.00 | 0.00 | 40 | 1001.9 |
| 20260504020112 | 16 | 271 | 1.6 | 4.8 | 0.00 | 0.00 | 0.00 | 39 | 1002.1 |
| 20260504014557 | 16 | 268 | 3.2 | 8.0 | 0.00 | 0.00 | 0.00 | 38 | 1002.2 |
| 20260504013056 | 17 | 267 | 6.4 | 9.7 | 0.00 | 0.00 | 0.00 | 36 | 1002.5 |
| 20260504011553 | 17 | 257 | 6.4 | 12.9 | 0.00 | 0.00 | 0.00 | 36 | 1002.7 |
| 20260504010058 | 18 | 271 | 12.9 | 19.3 | 0.00 | 0.00 | 0.00 | 34 | 1002.9 |
| 20260504004554 | 18 | 304 | 11.3 | 19.3 | 0.00 | 0.00 | 0.00 | 36 | 1003.1 |
| 20260504003053 | 18 | 271 | 9.7 | 17.7 | 0.00 | 0.00 | 0.00 | 34 | 1003.1 |
| 20260504001556 | 18 | 268 | 11.3 | 19.3 | 0.00 | 0.00 | 0.00 | 33 | 1003.1 |
| 20260504000056 | 18 | 297 | 16.1 | 22.5 | 0.00 | 0.00 | 0.00 | 33 | 1003.2 |
| 20260503234623 | 18 | 269 | 6.4 | 12.9 | 0.00 | 0.00 | 0.00 | 35 | 1003.5 |
| 20260503233055 | 18 | 297 | 11.3 | 19.3 | 0.00 | 0.00 | 0.00 | 33 | 1003.8 |
| 20260503231555 | 18 | 292 | 11.3 | 20.9 | 0.00 | 0.00 | 0.00 | 32 | 1004.0 |
| 20260503230058 | 18 | 299 | 16.1 | 25.7 | 0.00 | 0.00 | 0.00 | 30 | 1004.1 |
| 20260503224553 | 18 | 264 | 11.3 | 19.3 | 0.00 | 0.00 | 0.00 | 31 | 1004.0 |
| 20260503223054 | 18 | 261 | 11.3 | 22.5 | 0.00 | 0.00 | 0.00 | 31 | 1004.0 |
| 20260503221559 | 19 | 295 | 6.4 | 17.7 | 0.00 | 0.00 | 0.00 | 31 | 1004.2 |
| 20260503220058 | 18 | 304 | 11.3 | 16.1 | 0.00 | 0.00 | 0.00 | 30 | 1004.3 |
| 20260503214553 | 18 | 256 | 11.3 | 22.5 | 0.00 | 0.00 | 0.00 | 29 | 1004.6 |
| 20260503213055 | 18 | 262 | 9.7 | 19.3 | 0.00 | 0.00 | 0.00 | 30 | 1004.8 |
| 20260503211552 | 18 | 293 | 9.7 | 20.9 | 0.00 | 0.00 | 0.00 | 30 | 1005.0 |
| 20260503210054 | 18 | 269 | 11.3 | 17.7 | 0.00 | 0.00 | 0.00 | 31 | 1005.2 |
| 20260503204557 | 18 | 301 | 12.9 | 17.7 | 0.00 | 0.00 | 0.00 | 31 | 1005.2 |
| 20260503203057 | 18 | 354 | 3.2 | 16.1 | 0.00 | 0.00 | 0.00 | 32 | 1005.5 |
| 20260503201558 | 19 | 290 | 6.4 | 14.5 | 0.00 | 0.00 | 0.00 | 31 | 1005.7 |
| 20260503200058 | 18 | 295 | 9.7 | 17.7 | 0.00 | 0.00 | 0.00 | 30 | 1005.8 |
| 20260503194600 | 18 | 251 | 8.0 | 16.1 | 0.00 | 0.00 | 0.00 | 29 | 1005.9 |
| 20260503193058 | 18 | 304 | 6.4 | 19.3 | 0.00 | 0.00 | 0.00 | 30 | 1006.0 |
| 20260503191555 | 18 | 311 | 6.4 | 12.9 | 0.00 | 0.00 | 0.00 | 32 | 1006.2 |
| 20260503190053 | 18 | 264 | 4.8 | 11.3 | 0.00 | 0.00 | 0.00 | 30 | 1006.6 |
| 20260503184558 | 17 | 327 | 8.0 | 17.7 | 0.00 | 0.00 | 0.00 | 31 | 1006.9 |
| 20260503183054 | 17 | 304 | 9.7 | 16.1 | 0.00 | 0.00 | 0.00 | 32 | 1007.0 |
| 20260503181555 | 18 | 304 | 4.8 | 12.9 | 0.00 | 0.00 | 0.00 | 31 | 1007.2 |
| 20260503180100 | 17 | 304 | 4.8 | 12.9 | 0.00 | 0.00 | 0.00 | 30 | 1007.5 |
| 20260503173109 | 17 | 96 | 6.4 | 14.5 | 0.00 | 0.00 | 0.00 | 30 | 1007.6 |
| 20260503171554 | 16 | 354 | 4.8 | 11.3 | 0.00 | 0.00 | 0.00 | 29 | 1007.6 |
| 20260503110108 | 6 | 360 | 1.6 | 6.4 | 0.00 | 0.00 | 0.00 | 75 | 1005.5 |